{"data":{"norad_id":56328,"epoch":"2026-09-20T23:13:22.476000Z","epoch_age_seconds":68193,"freshness":"FRESH","line1":"1 56328U 23058M   26263.96762125  .00000887  00000+0  29788-4 0  9999","line2":"2 56328  97.2836 260.6679 0002312  94.1177 266.0330 15.33443572187704","mean_motion":15.33443572,"eccentricity":0.0002312,"inclination_deg":97.2836,"raan_deg":260.6679,"arg_perigee_deg":94.1177,"mean_anomaly_deg":266.033,"bstar":2.9788e-5,"rev_number":18770,"period_min":93.906292105804,"perigee_km":463.9651633661,"apogee_km":467.12968304339,"semimajor_km":6843.6844232047,"source":"CELESTRAK","updated_at":"2026-09-21T09:00:33.402691Z"}}